SCP
0 0 0 0 0 0 0 0 0 0 0 0 0 0 0 0 0 0 0 0 0 0 0 0 0 0 0 0 0 0 0 0 0 0 0 0 0 0 0 0 0 0 0 0
0 0 0 0 0 0 0 0 0 0 0 0 0 0 0 0 0 0 0 0 0 0 0 0 0 0 0 0 0 0 0 0 0 0 0 0 0 0 0 0 0 0 0 0
0 0 0 0 0 0 0 0 0 0 0 0 0 0 0 0 0 0 0 0 0 0 0 0 0 0 0 0 0 0 0 0 0 0 0 0 0 0 0 0 0 0 0 0
0 0 0 0 0 0 0 0 0 0 0 0 0 0 0 0 0 0 0 0 0 0 0 0 0 0 0 0 0 0 0 0 0 0 0 0 0 0 0 0 0 0 0 0
0 0 0 0 0 0 0 0 0 0 0 0 0 0 0 0 0 0 0 0 0 0 0 0 0 0 0 0 0 0 0 0 0 0 0 0 0 0 0 0 0 0 0 0
0 0 0 0 0 0 0 0 0 0 0 0 0 0 0 0 0 0 0 0 0 0 0 0 0 0 0 0 0 0 0 0 0 0 0 0 0 0 0 0 0 0 0 0
0 0 0 0 0 0 0 0 0 0 0 0 0 0 0 0 0 0 0 0 0 0 0 0 0 0 0 0 0 0 0 0 0 0 0 0 0 0 0 0 0 0 0 0
0 0 0 0 0 0 0 0 0 0 0 0 0 0 0 0 0 0 0 0 0 0 0 0 0 0 0 0 0 0 0 0 0 0 0 0 0 0 0 0 0 0 0 0
0 0 0 0 0 0 0 0 0 0 0 0 0 0 0 0 0 0 0 0 0 0 0 0 0 0 0 0 0 0 0 0 0 0 0 0 0 0 0 0 0 0 0 0
0 0 0 0 0 0 0 0 0 0 0 0 0 0 0 0 0 0 0 0 0 0 0 0 0 0 0 0 0 0 0 0 0 0 0 0 0 0 0 0 0 0 0 0
0 0 0 0 0 0 0 0 0 0 0 0 0 0 0 0 0 0 0 0 0 0 0 0 0 0 0 0 0 0 0 0 0 0 0 0 0 0 0 0 0 0 0 0
0 0 0 0 0 0 0 0 0 0 0 0 0 0 0 0 0 0 0 0 0 0 0 0 0 0 0 0 0 0 0 0 0 0 0 0 0 0 0 0 0 0 0 0
0 0 0 0 0 0 0 0 0 0 0 0 0 0 0 0 0 0 0 0 0 0 0 0 0 0 0 0 0 0 0 0 0 0 0 0 0 0 0 0 0 0 0 0
0 0 0 0 0 0 0 0 0 0 0 0 0 0 0 0 0 0 0 0 0 0 0 0 0 0 0 0 0 0 0 0 0 0 0 0 0 0 0 0 0 0 0 0
0 0 0 0 0 0 0 0 0 0 0 0 0 0 0 0 0 0 0 0 0 0 0 0 0 0 0 0 0 0 0 0 0 0 0 0 0 0 0 0 0 0 0 0
0 0 0 0 0 0 0 0 0 0 0 0 0 0 0 0 0 0 0 0 0 0 0 0 0 0 0 0 0 0 0 0 0 0 0 0 0 0 0 0 0 0 0 0
0 0 0 0 0 0 0 0 0 0 0 0 0 0 0 0 0 0 0 0 0 0 0 0 0 0 0 0 0 0 0 0 0 0 0 0 0 0 0 0 0 0 0 0
0 0 0 0 0 0 0 0 0 0 0 0 0 0 0 0 0 0 0 0 0 0 0 0 0 0 0 0 0 0 0 0 0 0 0 0 0 0 0 0 0 0 0 0
0 0 0 0 0 0 0 0 0 0 0 0 0 0 0 0 0 0 0 0 0 0 0 0 0 0 0 0 0 0 0 0 0 0 0 0 0 0 0 0 0 0 0 0
0 0 0 0 0 0 0 0 0 0 0 0 0 0 0 0 0 0 0 0 0 0 0 0 0 0 0 0 0 0 0 0 0 0 0 0 0 0 0 0 0 0 0 0
0 0 0 0 0 0 0 0 0 0 0 0 0 0 0 0 0 0 0 0 0 0 0 0 0 0 0 0 0 0 0 0 0 0 0 0 0 0 0 0 0 0 0 0
0 0 0 0 0 0 0 0 0 0 0 0 0 0 0 0 0 0 0 0 0 0 0 0 0 0 0 0 0 0 0 0 0 0 0 0 0 0 0 0 0 0 0 0
0 0 0 0 0 0 0 0 0 0 0 0 0 0 0 0 0 0 0 0 0 0 0 0 0 0 0 0 0 0 0 0 0 0 0 0 0 0 0 0 0 0 0 0
0 0 0 0 0 0 0 0 0 0 0 0 0 0 0 0 0 0 0 0 0 0 0 0 0 0 0 0 0 0 0 0 0 0 0 0 0 0 0 0 0 0 0 0
0 0 0 0 0 0 0 0 0 0 0 0 0 0 0 0 0 0 0 0 0 0 0 0 0 0 0 0 0 0 0 0 0 0 0 0 0 0 0 0 0 0 0 0
0 0 0 0 0 0 0 0 0 0 0 0 0 0 0 0 0 0 0 0 0 0 0 0 0 0 0 0 0 0 0 0 0 0 0 0 0 0 0 0 0 0 0 0
Wind_Speed
3 2 4 4 3 2 1 4 5 1 3 7 12 14 10 14 17 17 17 16 16 15 12 11 10 7 4 1 3 5 7 8 8 7 8 8 9 8 7 7 11 12 13 14
3 5 3 1 1 2 3 5 5 1 2 6 10 15 11 13 18 18 17 17 17 15 13 12 11 8 5 1 2 5 7 8 8 7 7 7 8 7 7 7 9 11 13 14
3 5 1 2 2 2 3 5 5 5 1 4 9 8 5 4 10 14 16 16 16 15 15 14 12 9 5 1 2 4 6 7 7 8 6 7 6 6 7 9 8 11 13 13
5 2 2 2 1 3 3 1 4 4 6 3 4 7 3 4 7 12 16 17 17 15 14 13 12 9 5 2 1 3 5 6 7 8 8 10 8 9 10 9 9 13 13 13
4 2 1 1 1 2 2 1 3 3 4 5 2 6 2 3 5 8 13 16 15 14 14 13 11 9 6 3 0 3 5 6 7 7 8 9 9 8 8 10 12 12 12 13
4 2 2 2 1 0 1 3 3 3 4 4 1 5 5 3 2 1 4 9 12 13 13 12 11 9 6 4 1 2 4 5 6 7 8 9 10 11 12 12 12 11 10 11
3 3 2 0 2 3 2 5 4 3 3 2 2 6 7 0 3 5 4 4 9 12 13 13 12 10 7 4 2 3 4 5 6 7 8 9 10 11 12 12 12 12 11 11
2 3 2 1 2 2 1 4 5 6 7 6 2 7 4 1 2 4 6 5 8 12 13 13 12 9 7 4 3 3 4 5 6 7 8 8 9 8 8 11 11 11 10 12
2 2 3 2 2 2 1 2 3 4 4 7 6 6 7 3 7 8 8 8 11 13 14 13 11 9 7 5 3 2 4 5 6 7 8 8 9 9 10 11 11 10 11 12
2 2 3 2 3 3 3 3 3 3 5 7 9 7 5 5 6 8 10 12 12 13 14 13 11 9 7 5 4 3 3 5 6 7 7 7 8 9 10 10 11 12 13 14
2 3 3 4 5 4 5 4 3 2 3 5 8 7 3 8 5 6 8 10 13 15 15 13 11 9 7 6 4 3 3 5 6 6 7 8 8 9 10 9 11 12 12 13
2 3 3 3 3 2 3 4 6 4 4 5 6 10 2 6 6 7 8 8 11 14 14 13 11 10 8 7 5 4 4 4 5 6 7 8 8 9 9 10 11 12 13 13
4 4 4 4 4 4 5 5 6 3 3 5 7 10 3 4 7 9 10 8 11 13 14 12 11 10 9 7 6 5 4 4 5 6 7 8 8 9 10 10 11 11 12 13
4 5 6 6 2 4 7 8 9 9 7 8 13 17 15 12 10 9 9 9 11 14 15 14 12 10 9 8 6 5 4 4 5 6 7 7 8 9 10 10 10 11 12 12
4 6 6 8 5 5 8 11 13 15 13 12 13 13 19 17 14 10 7 8 12 14 15 15 13 11 10 9 7 6 5 4 5 6 7 7 8 9 9 10 10 11 11 12
5 5 3 6 4 6 10 15 17 17 15 17 19 22 20 15 8 7 8 10 14 16 17 16 14 12 11 10 8 6 5 4 4 6 7 7 8 9 9 10 10 11 11 11
7 5 4 5 1 6 13 13 18 12 14 13 15 14 8 7 9 10 9 13 16 16 17 16 15 13 11 10 8 7 5 4 5 6 7 7 8 9 9 10 10 10 11 11
7 5 3 5 4 10 4 3 10 11 11 16 15 16 14 12 10 9 10 13 15 15 16 16 14 12 11 9 8 6 5 5 5 6 7 7 7 9 9 10 10 10 10 10
3 4 3 3 5 11 6 6 8 9 10 13 17 19 15 2 7 10 12 14 14 15 15 14 13 12 11 10 9 7 6 5 6 7 7 7 7 9 10 10 10 10 10 10
2 3 4 4 5 9 4 5 5 3 9 7 13 15 8 3 6 6 5 11 12 12 12 12 12 12 11 10 9 8 7 7 7 7 7 7 8 9 10 10 11 10 10 10
6 6 7 8 8 13 2 7 8 5 5 4 10 11 9 11 10 1 5 9 11 13 13 13 13 12 11 11 10 9 8 8 7 6 7 8 8 9 9 10 9 10 10 10
12 11 11 8 8 13 8 12 13 9 1 3 7 9 11 14 8 5 7 10 13 14 14 15 13 11 10 10 10 10 9 7 6 6 7 8 8 7 7 9 10 9 9 10
12 12 9 14 12 2 13 13 10 3 5 7 7 9 11 12 11 10 10 12 14 15 15 14 13 12 10 11 11 11 8 6 6 6 7 7 7 7 7 8 9 8 7 7
9 5 6 10 15 10 12 15 14 13 15 15 11 9 10 13 12 12 11 13 14 15 15 14 14 13 12 12 12 10 7 7 6 6 6 6 6 7 6 6 6 6 6 7
8 10 8 12 11 9 13 18 20 18 17 17 16 14 14 14 14 14 13 15 15 15 14 14 14 14 14 13 12 11 9 8 7 6 5 5 5 6 6 5 5 6 6 7
10 13 12 15 9 10 11 7 9 13 16 16 14 14 15 16 15 14 14 14 15 15 15 15 15 14 14 13 12 11 10 9 8 6 5 4 4 4 5 5 5 4 6 10
Wind_Direction
18 94 74 65 28 7 307 271 279 301 144 229 250 261 238 195 206 215 214 213 214 215 204 187 186 182 180 185 350 351 346 349 348 345 343 340 340 335 337 337 334 332 331 329
161 87 66 65 155 210 248 273 282 208 161 255 287 278 261 207 210 216 219 219 219 215 201 191 189 188 192 214 352 347 349 347 350 346 337 329 323 322 325 328 328 330 329 325
72 82 108 157 142 230 251 282 310 311 256 226 293 275 180 193 222 227 231 231 227 218 207 195 192 191 190 199 6 348 344 340 345 342 332 327 322 321 332 333 329 328 324 320
87 95 160 159 106 310 301 322 298 289 287 298 326 307 143 172 221 226 228 228 227 219 212 198 190 187 183 152 55 336 334 335 343 340 337 337 333 333 333 329 322 322 322 320
101 79 109 136 62 303 351 2 271 265 271 275 222 280 287 154 247 231 225 224 222 215 207 195 186 176 162 150 171 322 324 330 340 340 337 333 330 328 325 325 323 324 323 321
94 87 19 48 100 48 182 203 177 200 235 256 126 287 292 175 227 240 222 220 215 206 196 185 170 162 161 165 202 297 314 328 338 337 336 333 330 329 326 328 327 327 323 322
144 138 99 221 209 162 243 292 290 276 265 338 104 265 267 350 245 261 267 236 207 194 186 178 172 173 175 187 216 277 310 328 337 335 333 331 328 326 326 327 326 325 323 325
202 156 109 30 344 351 26 327 347 324 321 320 220 260 283 139 243 255 260 247 202 190 187 182 177 175 178 189 218 269 311 327 333 331 330 326 326 324 320 323 321 320 320 321
244 135 112 60 27 311 162 98 3 287 282 280 272 270 277 185 243 236 234 220 203 193 188 182 176 176 181 191 213 268 307 319 327 326 324 321 326 324 320 320 319 318 320 321
280 212 150 133 157 66 356 133 189 261 307 301 294 279 272 253 247 221 225 220 205 192 188 183 179 178 182 190 206 242 290 312 317 318 321 317 319 321 319 317 319 321 322 323
245 238 163 187 212 194 164 172 192 203 274 284 300 293 214 263 274 254 241 221 203 192 189 184 179 178 182 190 207 236 274 298 308 315 316 315 318 319 318 317 320 321 322 325
191 257 236 185 95 349 244 217 201 242 227 236 274 275 190 244 254 254 259 228 204 193 187 182 178 178 187 198 208 229 260 287 304 309 310 312 315 318 319 320 321 322 323 325
175 225 245 185 178 188 216 206 204 211 241 223 242 266 135 226 247 248 253 233 199 189 183 180 181 187 193 199 207 223 248 277 294 301 305 309 315 319 320 321 320 322 323 325
195 235 249 278 314 181 203 195 190 193 220 229 234 266 286 285 278 268 248 227 200 190 186 186 187 191 194 198 206 220 240 264 285 295 300 307 315 319 318 318 319 321 323 324
207 244 247 267 266 245 246 225 200 211 226 242 255 262 278 295 305 297 263 212 197 193 192 192 192 191 192 196 202 212 231 252 274 289 297 305 311 314 313 315 317 319 322 323
206 239 258 266 240 232 255 239 222 227 236 247 263 274 273 286 287 265 237 207 203 200 197 195 193 191 193 196 198 202 221 244 270 280 286 294 303 308 310 313 316 317 320 321
184 203 236 265 200 282 264 230 198 203 214 214 231 249 272 266 260 261 241 212 211 204 197 194 193 192 191 190 188 194 208 228 252 266 276 287 295 301 305 309 311 316 318 318
174 188 233 281 291 247 255 109 182 207 229 219 241 262 270 274 291 276 245 221 213 202 195 193 190 186 182 175 174 184 199 228 249 264 270 276 285 294 301 307 310 315 315 314
227 198 213 238 260 276 266 179 178 204 263 223 229 252 265 319 299 263 224 216 211 198 191 187 182 175 168 169 171 175 203 224 242 255 264 273 280 288 297 303 309 314 313 310
122 200 220 208 233 249 258 139 157 165 273 226 210 238 237 186 273 296 165 194 196 186 179 172 166 165 167 171 169 182 207 221 236 249 265 276 282 288 295 302 308 311 311 307
171 187 206 216 239 264 240 135 154 196 265 196 203 223 196 206 232 280 157 181 182 176 170 166 164 170 173 167 171 193 211 224 234 251 269 278 284 290 296 299 304 307 308 308
179 177 196 184 209 250 158 155 198 227 255 209 216 218 214 227 232 205 192 183 177 174 172 170 170 173 168 169 179 200 215 220 225 247 266 278 287 292 292 300 305 309 311 311
206 200 193 195 215 259 171 204 225 270 254 241 229 228 222 232 230 214 201 190 185 181 176 175 174 170 172 181 191 205 209 203 217 244 264 280 289 291 295 302 308 313 318 316
216 206 210 238 255 244 226 242 252 245 249 259 251 240 221 226 228 211 199 190 187 185 180 176 176 180 185 189 198 208 199 196 216 243 265 281 289 296 303 305 306 313 315 316
206 177 212 243 260 288 255 234 242 250 252 256 253 242 233 229 226 210 200 193 188 184 180 180 185 188 190 188 196 199 197 198 214 236 257 275 285 295 301 306 309 310 308 315
191 190 201 243 225 219 260 236 222 236 246 246 244 243 230 222 223 208 202 193 186 183 179 183 189 192 190 188 193 192 191 195 207 224 243 264 283 295 306 312 312 302 304 321